Hourly Weather Roundup
Issued by NWS Central Illinois

Home | Current Version | Previous Version | Text Only | Print | Product List | Glossary On
Versions: 1 2 3 4 5 6 7 8 9 10 11 12 13 14 15 16 17 18 19 20 21 22 23 24 25 26 27 28 29 30 31 32 33 34 35 36 37 38 39 40 41 42 43 44 45 46 47 48 49 50
000
NZUS43 KILX 211910
HWRILX

AREA WEATHER ROUNDUP
NATIONAL WEATHER SERVICE, LINCOLN IL
100 PM CST TUE FEB 21 2017


CITY           SKY/WX    TMP DP  RH WIND       PRES   REMARKS
BLOOMINGTON    PTSUNNY   63  55  75 VRB3      29.95F
CHAMPAIGN      CLOUDY    60  53  77 CALM      29.94F
DECATUR        CLOUDY    60  54  80 CALM      29.93F
EFFINGHAM      CLOUDY    60  56  86 E6        29.94F
FLORA          LGT RAIN  58  55  89 SE6       29.92F
GALESBURG      MOSUNNY   64  55  74 S5        29.93F
JACKSONVILLE   CLOUDY    65  56  73 E5        29.93F
LACON          PTSUNNY   61  57  85 W6        29.93F
LAWRENCEVILLE  LGT RAIN  61  54  77 CALM      29.94F
LITCHFIELD     PTSUNNY   60  57  89 CALM      29.93S
$$


CITY           SKY/WX    TMP DP  RH WIND       PRES   REMARKS
LINCOLN        CLOUDY    64  58  81 CALM      29.94S
MACOMB         CLOUDY    60  57  89 CALM      29.96F
MATTOON        CLOUDY    59  56  89 SE6       29.91F
MT CARMEL AP   DRIZZLE   62  52  69 CALM      29.93F
OLNEY-NOBLE AP LGT RAIN  55  55 100 SE5       29.93F
PARIS          CLOUDY    60  55  82 SE5       29.93F
PEORIA         PTSUNNY   64  58  80 VRB3      29.92F
PONTIAC        PTSUNNY   66  60  81 S3        29.94F
RANTOUL        CLOUDY    61  58  90 S3        29.95R
SPRINGFIELD    CLOUDY    62  58  86 NE5       29.93F
TAYLORVILLE    CLOUDY    58  56  90 N3        29.92F
$$

...REGIONAL REPORTS...


CITY           SKY/WX    TMP DP  RH WIND       PRES   REMARKS
CHICAGO O`HARE CLOUDY    62  54  74 SW9       29.91F
KANKAKEE       MOSUNNY   64  56  78 CALM      29.94S
MOLINE         MOSUNNY   65  44  46 CALM      29.91F
MOUNT STERLING MOSUNNY   65  58  77 SE5       29.92F
MOUNT VERNON   LGT RAIN  59  53  80 E5        29.92F
PITTSFIELD     CLOUDY    64  58  82 E5        29.94F
QUINCY         CLOUDY    62  57  83 NW7       29.93F
ROCKFORD       PTSUNNY   62  47  57 S3        29.93F
$$


CITY           SKY/WX    TMP DP  RH WIND       PRES   REMARKS
BURLINGTON     SUNNY     63  51  65 VRB3      29.93F
CEDAR RAPIDS   SUNNY     58  44  60 W5        29.92F
DES MOINES     MOSUNNY   63  41  44 SW6       29.93F
KIRKSVILLE     SUNNY     67  48  50 SE7       29.94F
OTTUMWA        SUNNY     64  41  42 SW5       29.93F
ST LOUIS       CLOUDY    63  58  83 NE5       29.93S
$$


CITY           SKY/WX    TMP DP  RH WIND       PRES   REMARKS
TERRE HAUTE    LGT RAIN  62  49  62 SE7       29.93F
EVANSVILLE     CLOUDY    64  51  62 E5        29.95S
INDIANAPOLIS   CLOUDY    64  47  53 SW9       29.95F
LAFAYETTE      CLOUDY    59  52  77 S6        29.94S
MADISON        MOSUNNY   55  41  59 S3        29.92F
MILWAUKEE      MOSUNNY   61  45  55 VRB7      29.91F
$$






USA.gov is the U.S. government's official web portal to all federal, state and local government web resources and services.